Карточка аэропорта UHPP

Внимание!
Информация на этой странице в стадии наполнения.
Если вы не увидели какой-то информации, или заметили неточность - пожалуйста сообщите нам!
Спасибо!
Команда RU-STAFF
Название аэропортаЕлизово
Название аэропорта (англ.)Yelizovo
Превышение131 ft. (39.9 m.)
Координаты53°10.2', 158°27.6'
Высота перехода2400m
Эшелон переходаQFE > 759 mmHg - FL090; 729 mmHg < QFE < 759 mmHg - FL100; QFE < 729 mmHg - FL110
Коды ответчика6630-6657
Зона ОрВДМагадан РПИ (UHMM)
Данные METARUHPP 200600Z 19005MPS 9999 FEW040CB BKN069 22/13 Q1010 R16R/CLRD60 NOSIG RMK MT OBSC QFE754/1006
Проноз погоды (TAF)UHPP 200450Z 2006/2112 18005G12MPS 9999 SCT030CB BECMG 2009/2011 36003G08MPS TEMPO 2011/2021 0700 FG VV002
NOTAMshow/hide NOTAM
AWOS   TABLE

Информация о ВПП

ВПП Длина ВПП (м.) Покрытие Курс ВПП Частота ILS
16R2500Бетон164109.9
34L2500Бетон344108.7

Диспетчерские позиции

Позывной Наименование органа УВД Частота
UHPP_TWRПетропавловск - Старт118.100
UHPP_GNDПетропавловск - Руление127.000
UHPP_R_APPПетропавловск - Круг119.400
UHPP_ATISПетропавловск - АТИС126.800



Спутниковое изображение